GSAT0215 (GALILEO 19) (43055 NORAD) Tracking and Keplerian Element Data

This shows tracking and keplerian element data for the satellite.

Feedback or suggestion? Click here.




ElementValue
Catalog43055
NameGSAT0215 (GALILEO 19)
Epoch Orbit369
Epoch Day198.73949394
Epoch Year2018
RAAN300.9732
Inclination56.827
Eccentricity0.0003063
Argument of Perigee206.809
Mean Anonmoly153.211
Mean Motion1.70474217
Decay Rate-6.2E-07
L11 43055U 17079A 18198.73949394 -.00000062 00000-0 00000-0 0 9995
L22 43055 56.8270 300.9732 0003063 206.8090 153.2110 1.70474217 3692

Live tracking and technical data element details for GSAT0215 (GALILEO 19) (NORAD 43055). GSAT0215 (GALILEO 19) can be tracked NOW for your location showing map with azimuth and elevation plus other details from your city location.

Track the satellite on the map from your city or location and see movement details for azimuth, elevation, latitude, longitude, range, height, and movement on the map or in text.







IsCatalogInMostPopularTable: catalog: 43055, numindb: 102
Update: records affected: 1



GetName: 43055 GSAT0215 (GALILEO 19)

Hit Count: updated at: Fri, 20 Jul 2018 20:21:23 GMT